Regional Weather Roundup
Issued by NWS

Home | Current Version | Previous Version | Text Only | Print | Product List | Glossary On
Versions: 1 2 3 4 5 6 7 8 9 10 11 12 13 14 15 16 17 18 19 20 21 22 23 24 25 26 27 28 29 30 31 32 33 34 35 36 37 38 39 40 41 42 43 44 45 46 47 48 49 50
000
ASHW40 PHFO 210110
RWRHI

WEATHER ROUNDUP FOR HAWAII
NATIONAL WEATHER SERVICE HONOLULU HI
300 PM HST WED AUG 20 2014

THIS IS AN AUTOMATED REPORT THAT HAS NOT BEEN QUALITY CONTROLLED.

NOTE..."FAIR" INDICATES FEW OR NO CLOUDS BELOW 12,000 FEET WITH NO
SIGNIFICANT WEATHER AND/OR OBSTRUCTIONS TO VISIBILITY.

* - THESE SITES REPORT LIMITED FIELDS

HIZ001>004-210200-
KAUAI-NIIHAU-

CITY           SKY/WX    TMP DP  RH WIND       PRES   REMARKS
LIHUE APT      MOSUNNY   83  69  62 NE13      29.98F
PORT ALLEN*      N/A     86 N/A N/A E15G22      N/A
POIPU*           N/A     84 N/A N/A NE9G16      N/A
PRINCEVILLE*   NOT AVBL
KOKOLE POINT*  NOT AVBL
MOLOAA DAIRY*  NOT AVBL
WAIMEA HTS*    NOT AVBL
PUU OPAE*      NOT AVBL
PUU LUA*       NOT AVBL
MAKAHA RIDGE*  NOT AVBL
$$

HIZ005>011-210200-
OAHU-

CITY           SKY/WX    TMP DP  RH WIND       PRES   REMARKS
HONOLULU       MOSUNNY   89  64  43 E14G22    29.93F HX  90
KALAELOA       PTSUNNY   89  67  47 SE8       29.94F HX  92
KANEOHE MCB    MOSUNNY   84  69  60 NE9       29.96S
WHEELER FIELD  FAIR      84  65  54 E15       29.95F
BELLOWS*       NOT AVBL
KAHUKU*        NOT AVBL
WHEELER*       NOT AVBL
WAIANAE HARBOR NOT AVBL
DILLINGHAM*      N/A     88  68  51 NE6G13      N/A  HX  91
KAHUKU TRN*      N/A     82  68  61 E9G20       N/A
KAWAILOA*      NOT AVBL
KII*             N/A     82  72  69 E13         N/A
MAKUA RANGE*     N/A     84  68  58 W7          N/A
OAHU FOREST NW NOT AVBL
SCHOFIELD BRK*   N/A     81  63  54 MISG        N/A
SCHOFIELD S*   NOT AVBL
WAIANAE VLY*   NOT AVBL
KUAOKALA*      NOT AVBL
HONOULIUULI*   NOT AVBL
MOKUOLOE IS*     N/A    N/A N/A N/A MISG        N/A
PALEHUA*       NOT AVBL
WAIAWA PHB*    NOT AVBL
$$

HIZ012>013-210200-
MOLOKAI-

CITY           SKY/WX    TMP DP  RH WIND       PRES   REMARKS
MOLOKAI AIRPT  MOSUNNY   86  70  58 NE13      29.94F HX  90
KALAUPAPA      NOT AVBL
MAKAPULAPAI*   NOT AVBL
MOLOKAI 1*     NOT AVBL
PUU ALII*      NOT AVBL
$$

HIZ016-210200-
KAHOOLAWE-

CITY           SKY/WX    TMP DP  RH WIND       PRES   REMARKS
KAHOOLAWE*     NOT AVBL
HAKIOAWA*      NOT AVBL
HONOKANAIA*      N/A     86  69  55 E17G29    29.94F HX  90
KANELOA*         N/A     81  66  61 E17G29    30.05F
KEALIALALO*    NOT AVBL
LUA MAKIKA*    NOT AVBL
$$

HIZ014>015-210200-
LANAI-

CITY           SKY/WX    TMP DP  RH WIND       PRES   REMARKS
LANAI CITY     CLOUDY    79  68  69 W7        30.00F
LANAI 1*       NOT AVBL
$$

HIZ017>028-210200-
MAUI-

CITY           SKY/WX    TMP DP  RH WIND       PRES   REMARKS
KAHULUI        PTSUNNY   85  69  58 E14       29.94F
KAPALUA-W MAUI PTSUNNY   81  68  65 E18G24    29.95
HANA AIRPORT   PTSUNNY   82  70  65 E8        29.98S
HANA*          NOT AVBL
HALEAKALA SUMM   N/A     61  19  20 E5          N/A
MAALAEA BAY*   NOT AVBL
HALEAKALA*     NOT AVBL
KAUPO GAP*     NOT AVBL
KULA 1*          N/A     60  59  96 NW3         N/A
$$

HIZ023>026-210200-
BIG ISLAND OF HAWAII COAST AND LOWER SLOPES-

CITY           SKY/WX    TMP DP  RH WIND       PRES   REMARKS
KAILUA KONA    SUNNY     85  71  63 SW12      29.91F HX  90
HILO           PTSUNNY   84  72  67 E16       29.95F
HONOKAA*       NOT AVBL
KAWAIHAE MWT*  NOT AVBL
KAWAIHAE*        N/A     81 N/A N/A SW10        N/A
SOUTH POINT*   NOT AVBL
UPOLU AIRPORT* NOT AVBL
KAMUELA*       PTCLDY    81  66  61 N13       30.05S
HAKALAU*         N/A     64  58  80 SE6G14      N/A
KALOKO-HONOKO* NOT AVBL
PALI 2*          N/A     81  68  65 SE15G26     N/A
KEALAKOMO*       N/A     84  73  70 E18G30      N/A  HX  91
KAUPULEHU*     NOT AVBL
KAPAPALA*        N/A     80  69  70 E3G12       N/A
LOWER KAHUKU*  NOT AVBL
PUHE CS*       NOT AVBL
PUHO CS*       NOT AVBL
PTA KEAMUKU*     N/A     70  66  88 W9          N/A
WAIKOLOA*      NOT AVBL
$$

HIZ027>028-210200-
BIG ISLAND OF HAWAII INTERIOR AND SUMMMITS-

CITY           SKY/WX    TMP DP  RH WIND       PRES   REMARKS
BRADSHAW FIELD PTSUNNY   69  57  63 W9G17     30.28F
MK VISITOR CEN NOT AVBL
MAUNA KEA*       N/A     46   9  21 SE12        N/A
MAUNA LOA*     NOT AVBL
MAUNA LOA 1*   NOT AVBL
PTA KIPUKA*      N/A     70  59  68 N7G17       N/A
PTA RANGE 17*    N/A     70  59  68 NW12G17     N/A
PTA WEST*        N/A     70  63  78 NW10G17     N/A
NENE CABIN*    NOT AVBL
AHUMOA*        NOT AVBL
PTA PORTABLE*  NOT AVBL
PUU MALI*      NOT AVBL
$$

HIC003-210200-
NORTHWEST ISLANDS-

CITY           SKY/WX    TMP DP  RH WIND       PRES   REMARKS
MIDWAY ISLAND  MOSUNNY   90  72  55 SW10      29.99F HX  96
MIDWAY NOS*    NOT AVBL
FRENCH FRIGATE NOT AVBL
$$

PHZ110>124-180-210200-
BUOY REPORTS

STATION/POSITION TIME  TEMP    WIND        PRES    WAVE   SWELL
                       AIR SEA DIR/SP/G            HT/PER HT/DIR
                 (UTC) (F)     (DEG/KT/KT) (MB)    (FT/S) (FT/D)
BUOY 51001       NOT AVBL
BUOY 51101       NOT AVBL
BUOY 51100       0100   78      80/ 12       N/A
BUOY 51003       0000   80 82   80/ 10/ 12 1013.8F   5/ 6   5
BUOY 51004       0042   80 80   90/ 14/ 16 1012.6F   5/ 8   3/100
BARBERS PT BUOY  NOT AVBL
WAIMEA BAY BUOY  0000      81                N/A     3/ 6
KAILUA BAY BUOY  0100      81                N/A     4/ 8   2/100
LANAI BUOY       NOT AVBL
BARBERS PT 2     0100      81                N/A     4/14   2/200
PAUWELA MAUI     0100      80                N/A     4/ 7   2/ 50
HILO             NOT AVBL
KANEOHE BAY BUOY 0100      80                N/A     4/ 8
HANALEI KAUAI    NOT AVBL
KAHULUI HARBOR   0100   79 82   30/ 14/ 18 1013.7F
HONOLULU HARBOR  0100   85      70/  4/ 11 1014.0F
KILO NALU        NOT AVBL
HILO HARBOR      0100   81      50/ 13/ 18 1013.7F
MOKUOLOE         0100      83              1014.8S
NAWILIWILI       0100      81                N/A
WHOTS BUOY       NOT AVBL
BUOY 51028       NOT AVBL
$$

......................KEY........................................
  SKY/WX - SKY CONDITIONS/PRESENT WEATHER
  TMP    - TEMPERATURE IN FAHRENHEIT
  DWPT   - DEWPOINT IN FAHRENHEIT
  RH     - RELATIVE HUMIDITY IN PERCENT
  WIND   - DIRECTION AND SPEED /MPH FOR ISLANDS...KTS FOR BUOYS/
  PRES   - MEAN SEA LEVEL PRESSURE IN INCHES OF HG
  VSB    - VISIBILITY IN MILES
  HX     - HEAT INDEX
  WCI    - WIND CHILL INDEX
  VRB    - VARIABLE WIND DIRECTION
  N/A    - NOT AVAILABLE


USA.gov is the U.S. government's official web portal to all federal, state and local government web resources and services.